Regional Weather Roundup
Issued by NWS Jackson, KY

Home | Current Version | Previous Version | Text Only | Print | Product List | Glossary Off
Versions: 1 2 3 4 5 6 7 8 9 10 11 12 13 14 15 16 17 18 19 20 21 22 23 24 25 26 27

000
ASUS43 KJKL 190410
RWRJKL

EAST KENTUCKY HOURLY WEATHER ROUNDUP
NATIONAL WEATHER SERVICE JACKSON KY
1100 PM EST WED JAN 18 2017

NOTE: "FAIR" INDICATES FEW OR NO CLOUDS BELOW 12,000 FEET WITH
NO SIGNIFICANT WEATHER AND/OR OBSTRUCTIONS TO VISIBILITY.

* THESE REPORTS ARE NOT UNDER NWS QUALITY CONTROL AND MAY NOT
  REPORT WEATHER SUCH AS PRECIPITATION AND FOG.

KYZ079-080-083-085-087-088-110-112-115-119-120-190500
...EASTERN KENTUCKY...

CITY           SKY/WX    TMP DP  RH WIND       PRES   REMARKS
JACKSON        CLOUDY    40  36  86 CALM      30.13F
LONDON         CLOUDY    38  35  89 CALM      30.13S
SOMERSET*      CLOUDY    37  37 100 CALM      30.14S
MONTICELLO*    CLOUDY    40  38  93 N8        30.13F WCI  34
WILLIAMSBURG*  CLOUDY    39  39 100 CALM      30.13F
MIDDLESBORO*   PTCLDY    40  39  99 CALM      30.14F
HARLAN APT*    CLOUDY    37  36  93 CALM      30.14F
PIKE CO APT*     N/A     39  38  97 SE3       30.13F
BIG SANDY APT* CLOUDY    41  38  88 CALM      30.15R
MOREHEAD APT*  CLOUDY    41  37  87 CALM      30.15F
ASHLAND*       CLOUDY    43  37  81 CALM      30.13F
$$

KYZ035-036-041-042-044-050-067-078-099-190500
...CENTRAL KENTUCKY...

CITY           SKY/WX    TMP DP  RH WIND       PRES   REMARKS
MT STERLING*   CLOUDY    36  36 100 CALM      30.15S
FLEMING/MASON* CLOUDY    40  37  90 CALM      30.15F
DANVILLE*      MOCLDY    34  34 100 CALM      30.14S
LEXINGTON      CLOUDY    36  33  89 CALM      30.13F
FRANKFORT      MOCLDY    35  31  85 CALM      30.13S
LOUISVILLE     CLOUDY    41  35  79 CALM      30.13F
LEBANON*         N/A     39  36  87 NE3       30.13F
GLASGOW*       CLOUDY    40  40 100 CALM      30.12S
BOWLING GREEN  MOCLDY    43  39  86 CALM      30.13S
$$

KYZ091>093-OHZ055-061-077-WVZ005-015-034-035-042-190500
...SOUTHERN OHIO/WEST VIRGINIA...

CITY           SKY/WX    TMP DP  RH WIND       PRES   REMARKS
COVINGTON      CLOUDY    39  37  92 S6        30.13S WCI  35
COLUMBUS       DRIZZLE   40  35  83 SW10      30.12F WCI  33
DAYTON         CLOUDY    37  36  96 SW10      30.12F WCI  30
WILMINGTON     CLOUDY    38  36  92 SW9       30.12F WCI  31
HUNTINGTON     CLOUDY    44  37  76 SW3       30.14F
CHARLESTON     CLOUDY    43  37  79 CALM      30.15F
PINEVILLE*     CLOUDY    41  36  81 MISG      30.19S
BECKLEY        CLOUDY    38  35  89 W7        30.12S WCI  33
BLUEFIELD      CLOUDY    33  31  92 W5        30.12R WCI  29
LOGAN CO APT*  CLOUDY    41  37  87 CALM      30.13F
$$

VAZ002-007-008-TNZ017-027-036-066-071-190500
...SOUTHWEST VIRGINIA/EAST TENNESSEE...

CITY           SKY/WX    TMP DP  RH WIND       PRES   REMARKS
WISE*          CLOUDY    37  37 100 CALM      30.12F
JONESVILLE*      N/A     36  36 100 CALM      30.16S
ABINGDON*      CLOUDY    41  38  89 CALM      30.13S
BRISTOL        CLOUDY    40  37  89 CALM      30.14R
MORRISTOWN*    CLEAR     43  39  87 CALM      30.12S
SEVIERVILLE*   CLEAR     43  39  87 CALM      30.12F
KNOXVILLE      CLOUDY    47  42  83 CALM      30.11S
LAFOLLETTE*    CLEAR     43  41  93 CALM      30.15S
OAK RIDGE      PTCLDY    48  43  82 CALM      30.13F
CROSSVILLE     PTCLDY    43  41  93 CALM      30.10F
NASHVILLE      CLOUDY    46  41  82 NE5       30.11F
$$

...KEY TO REMARKS...
VSB - VISIBILITY IN MILES
WCI - WIND CHILL INDEX
HX  - HEAT INDEX

$$




USA.gov is the U.S. government's official web portal to all federal, state and local government web resources and services.